Weather History for Mason, MI

Change the Weather History Date:

Monday, October 15, 2012

  Actual Average (KLAN) Record (KLAN)
Temperature  
Mean Temperature 49 °F 50 °F  
Max Temperature 52 °F 60 °F 86 °F (1897)
Min Temperature 46 °F 41 °F 21 °F (1869)
Degree Days  
Heating Degree Days 16 15  
Month to date heating degree days 185  
Since 1 July heating degree days 373  
Cooling Degree Days 0 0  
Month to date cooling degree days 4  
Year to date cooling degree days 622  
Moisture  
Dew Point 42 °F    
Average Humidity 79    
Maximum Humidity 90    
Minimum Humidity 72    
Precipitation  
Precipitation 0.00 in 0.07 in 1.36 in (1881)
Month to date precipitation 1.28  
Year to date precipitation 25.87  
Snow  
Snow 0.00 in 0.00 in T in (1991)
Month to date snowfall 0.1  
Since 1 July snowfall 0.1  
Since 1 September snowfall 0.1  
Snow Depth -    
Sea Level Pressure  
Sea Level Pressure 29.79 in    
Wind  
Wind Speed 13 mph (WNW)    
Max Wind Speed 18 mph    
Max Gust Speed 31 mph    
Visibility 10 miles    
Events Rain    
T = Trace of Precipitation, MM = Missing Value Source: NWS Daily Summary

Daily Weather History Graph

Daily Weather History Graph

Search for Another Location

Airport:

Trip Planner

Search our weather history database for the weather conditions in past years. The results will help you decide how hot, cold, wet, or windy it might be!

Date:

Astronomy

Oct. 15, 2012 Rise Set
Actual Time 7:51 AM EDT 6:54 PM EDT
Civil Twilight 7:22 AM EDT 7:23 PM EDT
Nautical Twilight 6:50 AM EDT 7:55 PM EDT
Astronomical Twilight 6:17 AM EDT 8:28 PM EDT
Moon 8:01 AM EDT (10/15) 6:51 PM EDT (10/15)
Length of Visible Light 12h 00m
Length of Day
11h 03m
Waxing Crescent, 0% of the Moon is Illuminated
Oct 15
Waxing Crescent
Oct 21
First Quarter
Oct 29
Full
Nov 6
Last Quarter
Nov 13
New

Hourly Weather History & Observations

Time (EDT) Temp. Windchill Dew Point Humidity Pressure Visibility Wind Dir Wind Speed Gust Speed Precip Events Conditions
12:13 AM 52.5 °F - 49.1 °F 88% 29.55 in 7.0 mi West 15.0 mph 23.0 mph N/A   Overcast
12:32 AM 52.0 °F - 49.1 °F 90% 29.56 in 7.0 mi West 16.1 mph 24.2 mph N/A   Overcast
12:52 AM 52.0 °F - 48.0 °F 86% 29.57 in 10.0 mi West 17.3 mph 24.2 mph N/A   Overcast
1:12 AM 51.8 °F - 48.0 °F 87% 29.59 in 10.0 mi West 16.1 mph 20.7 mph N/A   Overcast
1:32 AM 51.3 °F - 47.7 °F 87% 29.59 in 7.0 mi West 17.3 mph 28.8 mph N/A   Overcast
1:52 AM 50.9 °F - 47.3 °F 87% 29.61 in 10.0 mi West 13.8 mph 23.0 mph N/A   Overcast
2:13 AM 50.9 °F - 46.8 °F 86% 29.62 in 10.0 mi West 15.0 mph 20.7 mph N/A   Overcast
2:32 AM 50.5 °F - 46.8 °F 87% 29.62 in 10.0 mi West 10.4 mph 17.3 mph N/A   Overcast
2:52 AM 50.2 °F - 45.7 °F 85% 29.64 in 10.0 mi West 15.0 mph 21.9 mph N/A   Overcast
3:13 AM 50.2 °F - 44.8 °F 82% 29.64 in 10.0 mi West 13.8 mph 23.0 mph N/A   Overcast
3:32 AM 50.2 °F - 45.0 °F 82% 29.64 in 10.0 mi West 18.4 mph 26.5 mph N/A   Overcast
3:52 AM 50.0 °F - 44.1 °F 80% 29.65 in 10.0 mi West 17.3 mph 21.9 mph N/A   Overcast
4:12 AM 49.3 °F - 42.4 °F 77% 29.65 in 10.0 mi West 17.3 mph 31.1 mph N/A   Overcast
4:32 AM 49.1 °F - 42.8 °F 79% 29.66 in 10.0 mi West 16.1 mph 24.2 mph N/A   Overcast
4:52 AM 48.9 °F - 42.8 °F 79% 29.67 in 10.0 mi West 11.5 mph 24.2 mph N/A   Overcast
5:13 AM 48.7 °F - 42.8 °F 80% 29.67 in 10.0 mi West 15.0 mph 21.9 mph N/A   Overcast
5:32 AM 48.6 °F - 42.8 °F 80% 29.68 in 10.0 mi West 11.5 mph 19.6 mph N/A   Overcast
5:52 AM 48.6 °F - 42.8 °F 80% 29.68 in 10.0 mi West 12.7 mph 25.3 mph N/A   Overcast
6:12 AM 48.4 °F - 42.3 °F 79% 29.68 in 10.0 mi West 13.8 mph 20.7 mph N/A   Overcast
6:53 AM 48.2 °F - 41.9 °F 79% 29.70 in 10.0 mi West 13.8 mph 18.4 mph N/A   Overcast
7:12 AM 47.8 °F - 41.4 °F 78% 29.71 in 10.0 mi West 11.5 mph 21.9 mph N/A   Overcast
7:32 AM 47.5 °F - 41.2 °F 79% 29.72 in 10.0 mi WNW 12.7 mph 17.3 mph N/A   Overcast
7:52 AM 46.9 °F - 41.0 °F 80% 29.73 in 10.0 mi West 10.4 mph 17.3 mph N/A   Overcast
8:12 AM 47.3 °F - 41.0 °F 79% 29.74 in 10.0 mi West 10.4 mph 20.7 mph N/A   Overcast
8:32 AM 46.9 °F - 40.8 °F 79% 29.75 in 10.0 mi West 9.2 mph - N/A   Overcast
8:52 AM 47.3 °F - 40.8 °F 78% 29.75 in 10.0 mi West 13.8 mph 23.0 mph N/A   Overcast
9:12 AM 47.3 °F - 40.5 °F 77% 29.76 in 10.0 mi WNW 11.5 mph 18.4 mph N/A   Overcast
9:32 AM 47.5 °F - 40.5 °F 77% 29.76 in 10.0 mi WNW 15.0 mph - N/A   Overcast
9:53 AM 47.8 °F - 40.6 °F 76% 29.77 in 10.0 mi WNW 15.0 mph 23.0 mph N/A   Overcast
10:12 AM 48.4 °F - 41.2 °F 76% 29.77 in 10.0 mi WNW 10.4 mph 16.1 mph N/A   Overcast
10:33 AM 48.6 °F - 40.6 °F 74% 29.78 in 10.0 mi WNW 18.4 mph 25.3 mph N/A   Overcast
10:52 AM 48.2 °F - 41.0 °F 76% 29.79 in 10.0 mi West 12.7 mph 26.5 mph N/A   Overcast
11:12 AM 48.2 °F - 41.9 °F 79% 29.79 in 10.0 mi WNW 13.8 mph 19.6 mph N/A Rain Light Rain
11:33 AM 48.2 °F - 41.4 °F 77% 29.80 in 7.0 mi West 15.0 mph 25.3 mph N/A   Overcast
11:52 AM 48.6 °F - 41.5 °F 77% 29.80 in 10.0 mi WNW 15.0 mph 19.6 mph N/A   Overcast
12:12 PM 48.6 °F - 42.4 °F 79% 29.81 in 10.0 mi WNW 16.1 mph 23.0 mph N/A   Overcast
12:33 PM 48.4 °F - 42.8 °F 81% 29.82 in 7.0 mi WNW 10.4 mph 19.6 mph N/A   Light Drizzle
12:52 PM 48.2 °F - 42.1 °F 79% 29.82 in 10.0 mi WNW 10.4 mph 17.3 mph N/A   Light Drizzle
1:12 PM 48.2 °F - 43.3 °F 83% 29.82 in 10.0 mi West 10.4 mph - N/A Rain Light Rain
1:33 PM 48.4 °F - 43.0 °F 82% 29.83 in 10.0 mi West 10.4 mph 18.4 mph N/A   Overcast
1:52 PM 49.1 °F - 43.5 °F 81% 29.83 in 10.0 mi West 10.4 mph 16.1 mph N/A   Overcast
2:12 PM 48.7 °F - 42.3 °F 78% 29.83 in 10.0 mi West 9.2 mph - N/A   Overcast
2:32 PM 48.7 °F - 41.7 °F 77% 29.83 in 10.0 mi WNW 11.5 mph 19.6 mph N/A   Overcast
2:52 PM 48.7 °F - 41.4 °F 76% 29.84 in 10.0 mi WNW 12.7 mph 18.4 mph N/A   Overcast
3:13 PM 48.2 °F - 41.5 °F 78% 29.85 in 7.0 mi WNW 12.7 mph - N/A   Overcast
3:32 PM 47.8 °F - 41.9 °F 80% 29.86 in 7.0 mi West 9.2 mph - N/A   Overcast
3:52 PM 48.2 °F - 41.9 °F 79% 29.86 in 10.0 mi WNW 10.4 mph 18.4 mph N/A   Overcast
4:13 PM 48.6 °F - 41.0 °F 75% 29.86 in 10.0 mi WNW 10.4 mph 20.7 mph N/A   Overcast
4:32 PM 48.6 °F - 40.3 °F 73% 29.87 in 10.0 mi WNW 10.4 mph 18.4 mph N/A   Overcast
4:52 PM 49.1 °F - 40.5 °F 72% 29.87 in 10.0 mi West 10.4 mph - N/A   Overcast
5:13 PM 48.0 °F - 41.2 °F 77% 29.88 in 7.0 mi WNW 10.4 mph - N/A   Overcast
5:32 PM 46.8 °F - 42.4 °F 85% 29.88 in 7.0 mi WNW 9.2 mph - N/A   Overcast
5:53 PM 46.9 °F - 42.3 °F 84% 29.89 in 10.0 mi West 10.4 mph - N/A   Overcast
6:13 PM 47.3 °F - 41.9 °F 82% 29.89 in 10.0 mi WNW 6.9 mph - N/A   Overcast
6:32 PM 47.3 °F - 41.9 °F 82% 29.89 in 10.0 mi WNW 9.2 mph - N/A   Overcast
6:53 PM 47.3 °F - 41.4 °F 80% 29.90 in 10.0 mi WNW 9.2 mph - N/A   Overcast
7:13 PM 47.3 °F - 41.4 °F 80% 29.90 in 10.0 mi WNW 9.2 mph - N/A   Overcast
7:32 PM 47.3 °F - 40.3 °F 77% 29.90 in 10.0 mi WNW 9.2 mph - N/A   Overcast
7:53 PM 46.9 °F - 39.7 °F 76% 29.91 in 10.0 mi WNW 8.1 mph - N/A   Overcast
8:13 PM 46.9 °F - 39.7 °F 76% 29.91 in 10.0 mi WNW 4.6 mph - N/A   Overcast
8:32 PM 46.9 °F - 39.6 °F 76% 29.91 in 10.0 mi WNW 6.9 mph - N/A   Overcast
8:53 PM 46.9 °F - 39.0 °F 74% 29.92 in 10.0 mi West 10.4 mph - N/A   Overcast
9:12 PM 46.9 °F - 39.2 °F 74% 29.92 in 10.0 mi WNW 6.9 mph - N/A   Overcast
9:32 PM 46.8 °F - 39.6 °F 76% 29.92 in 10.0 mi WNW 6.9 mph - N/A   Overcast
9:53 PM 46.6 °F - 39.7 °F 77% 29.93 in 10.0 mi WNW 6.9 mph - N/A   Overcast
10:13 PM 46.4 °F 44.3 °F 39.6 °F 77% 29.94 in 10.0 mi NW 4.6 mph - N/A   Overcast
10:32 PM 46.4 °F 44.3 °F 39.6 °F 77% 29.94 in 10.0 mi WNW 4.6 mph - N/A   Overcast
10:53 PM 46.4 °F 45.2 °F 39.7 °F 78% 29.93 in 10.0 mi NW 3.5 mph - N/A   Overcast
11:13 PM 46.0 °F 43.9 °F 39.9 °F 79% 29.94 in 10.0 mi WNW 4.6 mph - N/A   Overcast
11:32 PM 46.0 °F 44.8 °F 39.9 °F 79% 29.94 in 10.0 mi WNW 3.5 mph - N/A   Overcast
11:53 PM 46.0 °F 42.5 °F 39.6 °F 78% 29.95 in 10.0 mi WNW 6.9 mph - N/A   Overcast